Skip Navigation Links
NOAA logo - Click to go to the NOAA homepage
NOAA's National Weather Service
Alaska Aviation Weather Unit
  NWS logo - Click to go to the NWS homepage
Left Navbar Graphic     09 AKDT = 17 GMT

   
NOAA is celebrating 200 years of science, service, and stewardship. Visit the NOAA 200th celebration Web site to learn more.
USA.gov is the U.S. Government's official Web portal to all Federal, state and local government Web resources and services.
Facebook
NWS on Facebook

Important Change Regarding the AAWU Web Presence

 

Over the last several months, the AAWU has been working to navigate its webpages to a nationally supported server. Security, as well as other needs, have necessitated the change.  In the process, we have made an effort to enhance the functionality of our website, as well as some of our products. As of June 20, 2017, aawu.arh.noaa.gov will be discontinued. The new AAWU web address is weather.gov/aawu. It is now live and will run in-parallel with the old site until it is discontinued. Please send any feedback or questions regarding the new webpages to nws.ar.aawu.webauthors@noaa.gov.  Thank you for your patience during this time of transition.
AAWU Home :: Display TAF Add Bookmark
TAF PABI 260600Z 2606/2712 12006KT 9999 VCSH FEW040 SCT100 BKN200
      QNH2982INS
      BECMG 2700/2701 VRB06KT 9999 NSW SCT060 QNH2998INS
      TX10/2702Z
      TN00/2611Z
      LAST NO AMDS AFT 2606
      NEXT 3014=

METAR PABI 271153Z AUTO 18013G21KT 10SM CLR 07/M07 A3004= METAR PABI 271253Z AUTO 19012KT 10SM CLR 06/M06 A3006= METAR PABI 271353Z AUTO 19014G28KT 10SM -RA OVC120 06/M06 A3006= METAR PABI 271453Z 18016G22KT 10SM FEW060 FEW080 BKN120 07/M07 A3006= METAR PABI 271553Z 19012G26KT 10SM FEW060 FEW080 BKN120 07/M08 A3007= METAR PABI 271653Z 19020G32KT 10SM FEW060 FEW080 BKN110 BKN200 08/M08 A3007=
 Alaska TAF Map

NOAA's National Weather Service
Alaska Aviation Weather Unit
6930 Sand Lake Road
Anchorage, AK 99502-1845
Disclaimer
Credits
Glossary
Privacy Policy
About Us
Career Opportunities
Contact AAWU Internet Services Site last modified: April, 17th 2012